Bellingham, WA

4:47 AM PDT on April 27, 2017 (GMT -0700)
Bellingham International

Weather History for KBLI - November, 2012

Change the Weather History Date:

Thursday, November 15, 2012

  Actual Average Record
Temperature  
Mean Temperature 43 °F 43 °F  
Max Temperature 51 °F 50 °F 65 °F (2004)
Min Temperature 35 °F 37 °F 3 °F (1955)
Degree Days  
Heating Degree Days 22 22  
Month to date heating degree days 301  
Cooling Degree Days 0 0  
Month to date cooling degree days 0  
Year to date cooling degree days 42  
Moisture  
Dew Point 38 °F    
Average Humidity 94    
Maximum Humidity 100    
Minimum Humidity 66    
Precipitation  
Precipitation 0.00 in 0.21 in 0.87 in (2013)
Month to date precipitation 2.94  
Year to date precipitation 28.75  
Sea Level Pressure  
Sea Level Pressure 30.11 in    
Wind  
Wind Speed 3 mph (NNE)    
Max Wind Speed 7 mph    
Max Gust Speed -    
Visibility 3 miles    
Events Fog    
T = Trace of Precipitation, MM = Missing Value Source: NWS Daily Summary

Daily Weather History Graph

Daily Weather History Graph

Search for Another Location

Airport or City:

Trip Planner

Search our weather history database for the weather conditions in past years. The results will help you decide how hot, cold, wet, or windy it might be!

Date:

Astronomy

Nov. 15, 2012 Rise Set
Actual Time 7:19 AM PST 4:29 PM PST
Civil Twilight 6:45 AM PST 5:03 PM PST
Nautical Twilight 6:06 AM PST 5:42 PM PST
Astronomical Twilight 5:29 AM PST 6:19 PM PST
Moon 9:27 AM PST (11/15) 6:20 PM PST (11/15)
Length of Visible Light 10h 18m
Length of Day
9h 09m
Waxing Crescent, 5% of the Moon is Illuminated
Nov 15
Waxing Crescent
Nov 20
First Quarter
Nov 28
Full
Dec 6
Last Quarter
Dec 13
New

Hourly Weather History & Observations

Time (PST) Temp. Windchill Dew Point Humidity Pressure Visibility Wind Dir Wind Speed Gust Speed Precip Events Conditions
12:53 AM 35.1 °F 31.0 °F 34.0 °F 96% 30.31 in 0.2 mi NNW 4.6 mph - N/A Fog Fog
1:08 AM 35.6 °F - 33.8 °F 93% 30.27 in 0.5 mi Calm Calm - N/A Fog Fog
1:30 AM 35.6 °F 32.8 °F 33.8 °F 93% 30.27 in 0.2 mi North 3.5 mph - N/A Fog Fog
1:53 AM 36.0 °F - 35.1 °F 97% 30.29 in 0.2 mi Calm Calm - N/A Fog Fog
2:53 AM 37.9 °F 34.4 °F 36.0 °F 93% 30.28 in 0.2 mi NNE 4.6 mph - N/A Fog Fog
3:08 AM 37.4 °F 34.9 °F 37.4 °F 100% 30.25 in 0.2 mi North 3.5 mph - N/A Fog Fog
3:53 AM 39.0 °F 36.8 °F 37.9 °F 96% 30.25 in 0.2 mi NNE 3.5 mph - N/A Fog Fog
4:53 AM 39.9 °F 37.8 °F 39.0 °F 97% 30.25 in 0.2 mi North 3.5 mph - N/A Fog Fog
5:21 AM 39.2 °F 37.0 °F 39.2 °F 100% 30.21 in 0.2 mi NE 3.5 mph - N/A Fog Fog
5:51 AM 39.2 °F 35.9 °F 37.4 °F 93% 30.19 in 0.5 mi NE 4.6 mph - N/A Fog Fog
5:53 AM 39.0 °F 36.8 °F 37.9 °F 96% 30.22 in 0.5 mi NE 3.5 mph - N/A Fog Fog
6:11 AM 39.2 °F 35.0 °F 39.2 °F 100% 30.19 in 1.0 mi North 5.8 mph - N/A   Overcast
6:27 AM 39.2 °F 34.2 °F 39.2 °F 100% 30.18 in 0.8 mi NNE 6.9 mph - N/A   Overcast
6:42 AM 39.2 °F 37.0 °F 39.2 °F 100% 30.18 in 0.5 mi NE 3.5 mph - N/A Fog Fog
6:53 AM 39.9 °F 37.8 °F 39.0 °F 97% 30.21 in 0.5 mi NNE 3.5 mph - N/A Fog Fog
7:53 AM 37.9 °F - 37.9 °F 100% 30.20 in 0.5 mi Calm Calm - N/A Fog Fog
8:34 AM 37.4 °F 34.9 °F 35.6 °F 93% 30.16 in 0.2 mi SE 3.5 mph - N/A Fog Fog
8:53 AM 37.9 °F - 37.0 °F 97% 30.19 in 0.2 mi Calm Calm - N/A Fog Fog
9:03 AM 37.4 °F 34.9 °F 37.4 °F 100% 30.16 in 0.1 mi SE 3.5 mph - N/A Fog Fog
9:53 AM 39.0 °F - 37.9 °F 96% 30.17 in 0.1 mi Calm Calm - N/A Fog Fog
10:36 AM 39.2 °F - 39.2 °F 100% 30.13 in 0.1 mi Calm Calm - N/A Fog Fog
10:46 AM 41.0 °F - 39.2 °F 93% 30.12 in 0.1 mi Calm Calm - N/A Fog Fog
10:53 AM 39.9 °F 37.8 °F 39.0 °F 97% 30.14 in 0.2 mi Variable 3.5 mph - N/A Fog Fog
11:07 AM 39.2 °F 37.0 °F 39.2 °F 100% 30.10 in 0.2 mi North 3.5 mph - N/A Fog Fog
11:16 AM 41.0 °F 39.0 °F 39.2 °F 93% 30.10 in 0.5 mi NNE 3.5 mph - N/A Fog Fog
11:45 AM 42.8 °F 40.1 °F 39.2 °F 87% 30.07 in 10.0 mi NNE 4.6 mph - N/A   Scattered Clouds
11:53 AM 43.0 °F 40.3 °F 41.0 °F 93% 30.10 in 10.0 mi NNE 4.6 mph - N/A   Scattered Clouds
12:53 PM 48.9 °F - 43.0 °F 80% 30.06 in 10.0 mi North 5.8 mph - N/A   Clear
1:53 PM 51.1 °F - 39.9 °F 66% 30.05 in 10.0 mi NW 6.9 mph - N/A   Unknown
2:53 PM 51.1 °F - 39.9 °F 66% 30.04 in 10.0 mi North 5.8 mph - N/A   Clear
3:53 PM 46.9 °F - 39.9 °F 77% 30.03 in 10.0 mi West 4.6 mph - N/A   Clear
4:53 PM 42.1 °F - 39.9 °F 92% 30.02 in 10.0 mi Calm Calm - N/A   Partly Cloudy
5:53 PM 39.9 °F - 37.9 °F 93% 30.01 in 10.0 mi Calm Calm - N/A   Mostly Cloudy
6:53 PM 39.9 °F - 37.9 °F 93% 30.00 in 10.0 mi Calm Calm - N/A   Scattered Clouds
7:06 PM 37.4 °F - 35.6 °F 93% 29.97 in 1.8 mi Calm Calm - N/A   Partly Cloudy
7:14 PM 39.2 °F - 37.4 °F 93% 29.96 in 10.0 mi Calm Calm - N/A   Partly Cloudy
7:53 PM 37.0 °F - 35.1 °F 93% 29.99 in 10.0 mi Calm Calm - N/A   Clear
8:53 PM 37.0 °F - 36.0 °F 96% 29.99 in 10.0 mi Calm Calm - N/A   Clear
9:18 PM 37.4 °F - 37.4 °F 100% 29.96 in 10.0 mi Calm Calm - N/A   Partly Cloudy
9:33 PM 37.4 °F - 35.6 °F 93% 29.95 in 10.0 mi Calm Calm - N/A   Mostly Cloudy
9:40 PM 37.4 °F - 37.4 °F 100% 29.96 in 0.8 mi Calm Calm - N/A   Overcast
9:50 PM 37.4 °F - 35.6 °F 93% 29.96 in 0.2 mi Calm Calm - N/A Fog Fog
9:53 PM 37.9 °F - 36.0 °F 93% 29.99 in 0.2 mi Calm Calm - N/A Fog Fog
10:00 PM 39.2 °F 37.0 °F 37.4 °F 93% 29.96 in 0.2 mi SW 3.5 mph - N/A Fog Fog
10:53 PM 37.9 °F - 37.0 °F 97% 29.97 in 0.2 mi Calm Calm - N/A Fog Fog
11:53 PM 39.9 °F - 39.0 °F 97% 29.97 in 0.2 mi Calm Calm - N/A Fog Fog